📊 Raw Sensor Data

Showing records 46776 to 46800 of 85,076 total

ID Distance (ft) Battery V Battery A Int Temp (°F) Int Humid (%) Ext Temp (°F) Solar V RSSI SNR Time Stamp
38313 -- 3.87 -5 46 41 47 0.00 -85 8 04/20/2025 03:30 AM
38312 -- 3.87 -5 46 41 48 0.00 -92 6 04/20/2025 03:16 AM
38311 -- 3.87 -5 46 41 48 0.00 -88 7 04/20/2025 03:01 AM
38310 -- 3.93 -5 46 41 48 0.00 -86 8 04/20/2025 02:45 AM
38309 -- 3.87 -5 45 41 47 0.00 -92 7 04/20/2025 02:30 AM
38308 -- 3.93 -5 45 42 46 0.00 -89 7 04/20/2025 02:15 AM
38307 15.1 3.88 -5 45 42 46 0.00 -86 8 04/20/2025 02:00 AM
38306 -- 3.93 -5 46 41 47 0.00 -85 7 04/20/2025 01:45 AM
38305 15.1 3.88 -5 46 42 47 0.00 -90 6 04/20/2025 01:30 AM
38304 -- 3.93 -5 46 42 47 0.00 -86 7 04/20/2025 01:15 AM
38303 -- 3.93 -5 47 42 48 0.00 -86 8 04/20/2025 12:46 AM
38302 -- 3.88 -5 47 42 48 0.00 -89 6 04/20/2025 12:30 AM
38301 -- 3.88 -5 48 42 49 0.00 -88 8 04/20/2025 12:15 AM
38300 -- 3.94 -5 48 42 50 0.00 -86 7 04/20/2025 12:00 AM
38299 -- 3.88 -5 48 43 49 0.00 -87 8 04/19/2025 11:46 PM
38298 -- 3.88 -5 49 43 50 0.00 -92 7 04/19/2025 11:30 PM
38297 -- 3.88 -5 49 43 50 0.00 -90 7 04/19/2025 11:15 PM
38296 -- 3.88 -5 50 43 51 0.00 -83 8 04/19/2025 11:00 PM
38295 -- 3.88 -5 50 44 51 0.00 -90 8 04/19/2025 10:45 PM
38294 -- 3.88 -5 51 44 52 0.00 -88 7 04/19/2025 10:30 PM
38293 -- 3.89 -5 52 44 53 0.00 -90 7 04/19/2025 10:15 PM
38292 -- 3.94 -5 53 44 53 0.00 -96 6 04/19/2025 10:00 PM
38291 -- 3.89 -5 53 45 54 0.00 -84 8 04/19/2025 09:45 PM
38290 -- 3.89 -5 54 45 55 0.00 -82 7 04/19/2025 09:30 PM
38289 -- 3.89 -5 56 47 57 0.00 -82 8 04/19/2025 08:45 PM